Powrót do katalogu

STARLINK-36999

AktywnyŁącznośćVLEO
NORAD 68268·PAYLOAD·🇺🇸 United States

Wystrzelony Mar 19, 2026 z Vandenberg Space Force Base

Loading…

Następne Przeloty (najbliższe 24 godziny)

TLE

ŚwieżeSource: CelesTrak SupGP

Epoka: Sep 15, 2026, 03:49 UTC

1 68268C 26055G   26258.15951389  .00070654  00000+0  20870-2 0  2580
2 68268  53.1568 154.4026 0001386  96.8488  18.9251 15.34362279    12

Śledź STARLINK-36999 w czasie rzeczywistym z AllMySat

Download on the App Store